020  
ASUS44 KSHV 230310  
RWRSHV  
 
WEATHER ROUNDUP FOR THE FOUR STATE AREA  
NATIONAL WEATHER SERVICE SHREVEPORT LA  
1000 PM CDT THU JUN 22 2017  
 
NOTE: "FAIR" INDICATES FEW OR NO CLOUDS BELOW 12000 FEET  
WITH NO SIGNIFICANT WEATHER AND/OR S TO VISIBILITY
.  
 
!LAZ001-LAZ014-TXZ097-230400  
SHREVEPORT...MONROE...TEXARKANA RADIOS  
 
CITY SKY/WX TMP DP RH WIND PRES REMARKS
 
SHREVEPORT CLOUDY 77 77 100 SW10 29.65R  
MONROE MOCLDY 79 74 84 S18G29 29.67S  
NATCHITOCHES DRIZZLE 75 75 100 S10 29.71R  
TEXARKANA CLOUDY 77 76 96 W3 29.64R  

 
 
!LAZ001-LAZ014-TXZ097-230400  
OTHER LOCATIONS...  
 
CITY SKY/WX TMP DP RH WIND PRES REMARKS
 
DOWNTOWN SHV CLOUDY 78 75 90 SW13 29.65R THUNDER  
BOSSIER CITY LGT RAIN 76 76 100 SW14 29.63R  
RUSTON LGT RAIN 76 74 92 S18G25 29.69R  
LITTLE ROCK LGT RAIN 76 76 100 E7 29.66R  
EL DORADO LGT RAIN 76 75 97 S7 29.59R  
JACKSON CLEAR 80 70 71 S12 29.82R  
NEW ORLEANS PTCLDY 81 78 91 S10G20 29.87R  
HOUSTON CLOUDY 84 75 74 S10 29.71R  
LUFKIN CLOUDY 76 76 100 SE7 29.71R FOG  
TYLER CLOUDY 80 78 94 S9 29.67R  
DAL FT WORTH CLOUDY 83 73 72 S6 29.65R  

 
 
!TXZ136-TXZ165-230400  
TYLER...LUFKIN RADIOS  
 
CITY SKY/WX TMP DP RH WIND PRES REMARKS
 
TYLER CLOUDY 80 78 94 S9 29.67R  
GILMER PTCLDY 79 77 92 CALM 29.67R  
LONGVIEW CLOUDY 79 78 97 SW9 29.66R  
LUFKIN CLOUDY 76 76 100 SE7 29.71R FOG  

 
 
!TXZ136-TXZ165-230400  
OTHER LOCATIONS...  
 
CITY SKY/WX TMP DP RH WIND PRES REMARKS
 
NACOGDOCHES CLOUDY 77 73 88 MISG 29.69R  
BEAUMONT CLOUDY 81 77 88 S17 29.74R  
HOUSTON CLOUDY 84 75 74 S10 29.71R  
COLLEGE STN CLOUDY 80 74 81 SE7 29.69R  
AUSTIN PTCLDY 88 71 57 SE9 29.65R  
DAL FT WORTH CLOUDY 83 73 72 S6 29.65R  
TEXARKANA CLOUDY 77 76 96 W3 29.64R  
SHREVEPORT CLOUDY 77 77 100 SW10 29.65R  
FORT POLK LGT RAIN 75 75 100 S6 29.75R  
LAKE CHARLES PTCLDY 82 81 96 S9 29.76R  

 
 
 
CLICK HERE TO GO TO PREVIOUS BULLETINS.

The Nexlab LA Page
The Nexlab TX Page
The Nexlab AR Page
The Nexlab OK Page Main Text Page